User: anonymous   Login
Location: Newark
(50.8139°N, 2.9578°W)
Time: 18:53:17
(UTC+00:00)
Language:

Hubble Space Telescope - Orbit

View from above orbital plane
View from above orbital plane
View from above satellite
View from above satellite

Ground track
Ground track

The orbit data is extracted from the following two-line orbital elements,

1 20580U 90037B   19293.94548052 +.00000401 +00000-0 +13471-4 0  9990
2 20580 028.4687 110.2805 0002759 025.3802 109.6844 15.09283664419596
Epoch (UTC): 20 October 2019 22:41:29
Eccentricity: 0.0002759
inclination: 28.4687°
perigee height: 536 km
apogee height: 540 km
right ascension of ascending node: 110.2805°
argument of perigee: 25.3802°
revolutions per day: 15.09283664
mean anomaly at epoch: 109.6844°
orbit number at epoch: 41959

The dashed part of the orbit path shows where the satellite is in the earth's shadow,  

DLR